Year,Month,Day,Hour,Minute,Value (Times are PST for barometer in hPa)
2015,02,05,00,00,1005.39
2015,02,05,00,01,1005.33
2015,02,05,00,02,1005.32
2015,02,05,00,03,1005.25
2015,02,05,00,04,1005.25
2015,02,05,00,05,1005.25
2015,02,05,00,06,1005.25
2015,02,05,00,07,1005.18
2015,02,05,00,08,1005.18
2015,02,05,00,09,1005.15
2015,02,05,00,10,1005.08
2015,02,05,00,11,1005.08
2015,02,05,00,12,1005.05
2015,02,05,00,13,1005.01
2015,02,05,00,14,1004.98
2015,02,05,00,15,1004.98
2015,02,05,00,16,1004.98
2015,02,05,00,17,1004.98
2015,02,05,00,18,1005.01
2015,02,05,00,19,1004.95
2015,02,05,00,20,1004.95
2015,02,05,00,21,1004.95
2015,02,05,00,22,1004.88
2015,02,05,00,23,1004.88
2015,02,05,00,24,1004.81
2015,02,05,00,25,1004.78
2015,02,05,00,26,1004.78
2015,02,05,00,27,1004.67
2015,02,05,00,28,1004.64
2015,02,05,00,29,1004.67
2015,02,05,00,30,1004.61
2015,02,05,00,31,1004.61
2015,02,05,00,32,1004.57
2015,02,05,00,33,1004.57
2015,02,05,00,34,1004.50
2015,02,05,00,35,1004.50
2015,02,05,00,36,1004.50
2015,02,05,00,37,1004.50
2015,02,05,00,38,1004.47
2015,02,05,00,39,1004.47
2015,02,05,00,40,1004.47
2015,02,05,00,41,1004.47
2015,02,05,00,42,1004.37
2015,02,05,00,43,1004.34
2015,02,05,00,44,1004.34
2015,02,05,00,45,1004.30
2015,02,05,00,46,1004.34
2015,02,05,00,47,1004.30
2015,02,05,00,48,1004.27
2015,02,05,00,49,1004.30
2015,02,05,00,50,1004.30
2015,02,05,00,51,1004.23
2015,02,05,00,52,1004.20
2015,02,05,00,53,1004.13
2015,02,05,00,54,1004.10
2015,02,05,00,55,1004.06
2015,02,05,00,56,1004.06
2015,02,05,00,57,1004.00
2015,02,05,00,58,1004.00
2015,02,05,00,59,1003.96
2015,02,05,01,00,1003.96
2015,02,05,01,01,1003.93
2015,02,05,01,02,1003.93
2015,02,05,01,03,1003.90
2015,02,05,01,04,1003.90
2015,02,05,01,05,1003.86
2015,02,05,01,06,1003.90
2015,02,05,01,07,1003.83
2015,02,05,01,08,1003.83
2015,02,05,01,09,1003.83
2015,02,05,01,10,1003.79
2015,02,05,01,11,1003.73
2015,02,05,01,12,1003.66
2015,02,05,01,13,1003.66
2015,02,05,01,14,1003.59
2015,02,05,01,15,1003.52
2015,02,05,01,16,1003.52
2015,02,05,01,17,1003.49
2015,02,05,01,18,1003.46
2015,02,05,01,19,1003.42
2015,02,05,01,20,1003.35
2015,02,05,01,21,1003.32
2015,02,05,01,22,1003.32
2015,02,05,01,23,1003.25
2015,02,05,01,24,1003.29
2015,02,05,01,25,1003.29
2015,02,05,01,26,1003.29
2015,02,05,01,27,1003.25
2015,02,05,01,28,1003.29
2015,02,05,01,29,1003.25
2015,02,05,01,30,1003.18
2015,02,05,01,31,1003.22
2015,02,05,01,32,1003.12
2015,02,05,01,33,1003.08
2015,02,05,01,34,1003.08
2015,02,05,01,35,1003.05
2015,02,05,01,36,1003.05
2015,02,05,01,37,1003.05
2015,02,05,01,38,1003.01
2015,02,05,01,39,1002.98
2015,02,05,01,40,1003.08
2015,02,05,01,41,1003.01
2015,02,05,01,42,1002.98
2015,02,05,01,43,1002.98
2015,02,05,01,44,1002.95
2015,02,05,01,45,1002.91
2015,02,05,01,46,1002.95
2015,02,05,01,47,1002.91
2015,02,05,01,48,1002.88
2015,02,05,01,49,1002.88
2015,02,05,01,50,1002.81
2015,02,05,01,51,1002.78
2015,02,05,01,52,1002.78
2015,02,05,01,53,1002.74
2015,02,05,01,54,1002.74
2015,02,05,01,55,1002.74
2015,02,05,01,56,1002.68
2015,02,05,01,57,1002.68
2015,02,05,01,58,1002.64
2015,02,05,01,59,1002.61
2015,02,05,02,00,1002.57
2015,02,05,02,01,1002.54
2015,02,05,02,02,1002.54
2015,02,05,02,03,1002.51
2015,02,05,02,04,1002.47
2015,02,05,02,05,1002.41
2015,02,05,02,06,1002.41
2015,02,05,02,07,1002.41
2015,02,05,02,08,1002.37
2015,02,05,02,09,1002.34
2015,02,05,02,10,1002.37
2015,02,05,02,11,1002.27
2015,02,05,02,12,1002.27
2015,02,05,02,13,1002.24
2015,02,05,02,14,1002.24
2015,02,05,02,15,1002.17
2015,02,05,02,16,1002.20
2015,02,05,02,17,1002.17
2015,02,05,02,18,1002.10
2015,02,05,02,19,1002.10
2015,02,05,02,20,1002.03
2015,02,05,02,21,1002.03
2015,02,05,02,22,1002.03
2015,02,05,02,23,1001.93
2015,02,05,02,24,1001.97
2015,02,05,02,25,1002.03
2015,02,05,02,26,1001.90
2015,02,05,02,27,1001.86
2015,02,05,02,28,1001.90
2015,02,05,02,29,1001.83
2015,02,05,02,30,1001.86
2015,02,05,02,31,1001.83
2015,02,05,02,32,1001.80
2015,02,05,02,33,1001.83
2015,02,05,02,34,1001.80
2015,02,05,02,35,1001.76
2015,02,05,02,36,1001.76
2015,02,05,02,37,1001.80
2015,02,05,02,38,1001.73
2015,02,05,02,39,1001.76
2015,02,05,02,40,1001.69
2015,02,05,02,41,1001.69
2015,02,05,02,42,1001.66
2015,02,05,02,43,1001.63
2015,02,05,02,44,1001.56
2015,02,05,02,45,1001.49
2015,02,05,02,46,1001.42
2015,02,05,02,47,1001.39
2015,02,05,02,48,1001.32
2015,02,05,02,49,1001.29
2015,02,05,02,50,1001.22
2015,02,05,02,51,1001.12
2015,02,05,02,52,1001.05
2015,02,05,02,53,1001.05
2015,02,05,02,54,1000.98
2015,02,05,02,55,1000.95
2015,02,05,02,56,1000.92
2015,02,05,02,57,1000.81
2015,02,05,02,58,1000.85
2015,02,05,02,59,1000.81
2015,02,05,03,00,1000.78
2015,02,05,03,01,1000.71
2015,02,05,03,02,1000.75
2015,02,05,03,03,1000.68
2015,02,05,03,04,1000.61
2015,02,05,03,05,1000.54
2015,02,05,03,06,1000.51
2015,02,05,03,07,1000.51
2015,02,05,03,08,1000.48
2015,02,05,03,09,1000.44
2015,02,05,03,10,1000.37
2015,02,05,03,11,1000.31
2015,02,05,03,12,1000.31
2015,02,05,03,13,1000.27
2015,02,05,03,14,1000.27
2015,02,05,03,15,1000.27
2015,02,05,03,16,1000.24
2015,02,05,03,17,1000.17
2015,02,05,03,18,1000.20
2015,02,05,03,19,1000.17
2015,02,05,03,20,1000.10
2015,02,05,03,21,1000.07
2015,02,05,03,22,1000.07
2015,02,05,03,23,999.97
2015,02,05,03,24,1000.00
2015,02,05,03,25,999.93
2015,02,05,03,26,999.87
2015,02,05,03,27,999.87
2015,02,05,03,28,999.80
2015,02,05,03,29,999.80
2015,02,05,03,30,999.73
2015,02,05,03,31,999.73
2015,02,05,03,32,999.73
2015,02,05,03,33,999.66
2015,02,05,03,34,999.63
2015,02,05,03,35,999.63
2015,02,05,03,36,999.59
2015,02,05,03,37,999.56
2015,02,05,03,38,999.49
2015,02,05,03,39,999.46
2015,02,05,03,40,999.46
2015,02,05,03,41,999.39
2015,02,05,03,42,999.39
2015,02,05,03,43,999.36
2015,02,05,03,44,999.29
2015,02,05,03,45,999.26
2015,02,05,03,46,999.26
2015,02,05,03,47,999.22
2015,02,05,03,48,999.19
2015,02,05,03,49,999.15
2015,02,05,03,50,999.15
2015,02,05,03,51,999.12
2015,02,05,03,52,999.12
2015,02,05,03,53,999.05
2015,02,05,03,54,998.99
2015,02,05,03,55,999.02
2015,02,05,03,56,998.99
2015,02,05,03,57,998.95
2015,02,05,03,58,998.95
2015,02,05,03,59,998.92
2015,02,05,04,00,998.85
2015,02,05,04,01,998.82
2015,02,05,04,02,998.75
2015,02,05,04,03,998.75
2015,02,05,04,04,998.71
2015,02,05,04,05,998.75
2015,02,05,04,06,998.68
2015,02,05,04,07,998.61
2015,02,05,04,08,998.54
2015,02,05,04,09,998.51
2015,02,05,04,10,998.48
2015,02,05,04,11,998.44
2015,02,05,04,12,998.41
2015,02,05,04,13,998.38
2015,02,05,04,14,998.34
2015,02,05,04,15,998.31
2015,02,05,04,16,998.27
2015,02,05,04,17,998.24
2015,02,05,04,18,998.17
2015,02,05,04,19,998.21
2015,02,05,04,20,998.17
2015,02,05,04,21,998.14
2015,02,05,04,22,998.17
2015,02,05,04,23,998.14
2015,02,05,04,24,998.04
2015,02,05,04,25,998.04
2015,02,05,04,26,998.07
2015,02,05,04,27,998.00
2015,02,05,04,28,997.97
2015,02,05,04,29,997.94
2015,02,05,04,30,997.90
2015,02,05,04,31,997.87
2015,02,05,04,32,997.83
2015,02,05,04,33,997.77
2015,02,05,04,34,997.80
2015,02,05,04,35,997.73
2015,02,05,04,36,997.73
2015,02,05,04,37,997.77
2015,02,05,04,38,997.77
2015,02,05,04,39,997.70
2015,02,05,04,40,997.70
2015,02,05,04,41,997.63
2015,02,05,04,42,997.63
2015,02,05,04,43,997.63
2015,02,05,04,44,997.63
2015,02,05,04,45,997.56
2015,02,05,04,46,997.53
2015,02,05,04,47,997.56
2015,02,05,04,48,997.50
2015,02,05,04,49,997.46
2015,02,05,04,50,997.43
2015,02,05,04,51,997.43
2015,02,05,04,52,997.36
2015,02,05,04,53,997.36
2015,02,05,04,54,997.26
2015,02,05,04,55,997.26
2015,02,05,04,56,997.22
2015,02,05,04,57,997.19
2015,02,05,04,58,997.19
2015,02,05,04,59,997.12
2015,02,05,05,00,997.12
2015,02,05,05,01,997.16
2015,02,05,05,02,997.09
2015,02,05,05,03,997.09
2015,02,05,05,04,997.02
2015,02,05,05,05,997.05
2015,02,05,05,06,997.02
2015,02,05,05,07,997.02
2015,02,05,05,08,997.02
2015,02,05,05,09,996.89
2015,02,05,05,10,996.85
2015,02,05,05,11,996.89
2015,02,05,05,12,996.85
2015,02,05,05,13,996.82
2015,02,05,05,14,996.78
2015,02,05,05,15,996.78
2015,02,05,05,16,996.78
2015,02,05,05,17,996.75
2015,02,05,05,18,996.72
2015,02,05,05,19,996.72
2015,02,05,05,20,996.68
2015,02,05,05,21,996.72
2015,02,05,05,22,996.65
2015,02,05,05,23,996.65
2015,02,05,05,24,996.65
2015,02,05,05,25,996.58
2015,02,05,05,26,996.61
2015,02,05,05,27,996.55
2015,02,05,05,28,996.51
2015,02,05,05,29,996.51
2015,02,05,05,30,996.55
2015,02,05,05,31,996.48
2015,02,05,05,32,996.45
2015,02,05,05,33,996.38
2015,02,05,05,34,996.38
2015,02,05,05,35,996.31
2015,02,05,05,36,996.24
2015,02,05,05,37,996.24
2015,02,05,05,38,996.28
2015,02,05,05,39,996.24
2015,02,05,05,40,996.21
2015,02,05,05,41,996.24
2015,02,05,05,42,996.21
2015,02,05,05,43,996.17
2015,02,05,05,44,996.14
2015,02,05,05,45,996.11
2015,02,05,05,46,996.14
2015,02,05,05,47,996.07
2015,02,05,05,48,996.07
2015,02,05,05,49,996.01
2015,02,05,05,50,996.04
2015,02,05,05,51,996.04
2015,02,05,05,52,995.97
2015,02,05,05,53,995.97
2015,02,05,05,54,995.94
2015,02,05,05,55,995.97
2015,02,05,05,56,995.94
2015,02,05,05,57,995.94
2015,02,05,05,58,995.87
2015,02,05,05,59,995.90
2015,02,05,06,00,995.84
2015,02,05,06,01,995.84
2015,02,05,06,02,995.80
2015,02,05,06,03,995.77
2015,02,05,06,04,995.77
2015,02,05,06,05,995.73
2015,02,05,06,06,995.73
2015,02,05,06,07,995.67
2015,02,05,06,08,995.63
2015,02,05,06,09,995.67
2015,02,05,06,10,995.60
2015,02,05,06,11,995.60
2015,02,05,06,12,995.60
2015,02,05,06,13,995.56
2015,02,05,06,14,995.56
2015,02,05,06,15,995.50
2015,02,05,06,16,995.56
2015,02,05,06,17,995.53
2015,02,05,06,18,995.53
2015,02,05,06,19,995.50
2015,02,05,06,20,995.46
2015,02,05,06,21,995.46
2015,02,05,06,22,995.50
2015,02,05,06,23,995.43
2015,02,05,06,24,995.43
2015,02,05,06,25,995.43
2015,02,05,06,26,995.43
2015,02,05,06,27,995.40
2015,02,05,06,28,995.40
2015,02,05,06,29,995.33
2015,02,05,06,30,995.36
2015,02,05,06,31,995.26
2015,02,05,06,32,995.33
2015,02,05,06,33,995.36
2015,02,05,06,34,995.29
2015,02,05,06,35,995.29
2015,02,05,06,36,995.26
2015,02,05,06,37,995.26
2015,02,05,06,38,995.23
2015,02,05,06,39,995.29
2015,02,05,06,40,995.26
2015,02,05,06,41,995.26
2015,02,05,06,42,995.26
2015,02,05,06,43,995.26
2015,02,05,06,44,995.23
2015,02,05,06,45,995.26
2015,02,05,06,46,995.23
2015,02,05,06,47,995.19
2015,02,05,06,48,995.19
2015,02,05,06,49,995.23
2015,02,05,06,50,995.23
2015,02,05,06,51,995.23
2015,02,05,06,52,995.23
2015,02,05,06,53,995.19
2015,02,05,06,54,995.19
2015,02,05,06,55,995.19
2015,02,05,06,56,995.23
2015,02,05,06,57,995.29
2015,02,05,06,58,995.26
2015,02,05,06,59,995.26
2015,02,05,07,00,995.29
2015,02,05,07,01,995.26
2015,02,05,07,02,995.26
2015,02,05,07,03,995.23
2015,02,05,07,04,995.16
2015,02,05,07,05,995.16
2015,02,05,07,06,995.19
2015,02,05,07,07,995.16
2015,02,05,07,08,995.16
2015,02,05,07,09,995.12
2015,02,05,07,10,995.16
2015,02,05,07,11,995.19
2015,02,05,07,12,995.16
2015,02,05,07,13,995.12
2015,02,05,07,14,995.12
2015,02,05,07,15,995.09
2015,02,05,07,16,995.12
2015,02,05,07,17,995.12
2015,02,05,07,18,995.16
2015,02,05,07,19,995.12
2015,02,05,07,20,995.09
2015,02,05,07,21,995.16
2015,02,05,07,22,995.16
2015,02,05,07,23,995.12
2015,02,05,07,24,995.09
2015,02,05,07,25,995.19
2015,02,05,07,26,995.23
2015,02,05,07,27,995.16
2015,02,05,07,28,995.26
2015,02,05,07,29,995.23
2015,02,05,07,30,995.12
2015,02,05,07,31,995.19
2015,02,05,07,32,995.23
2015,02,05,07,33,995.23
2015,02,05,07,34,995.16
2015,02,05,07,35,995.26
2015,02,05,07,36,995.16
2015,02,05,07,37,995.19
2015,02,05,07,38,995.26
2015,02,05,07,39,995.19
2015,02,05,07,40,995.23
2015,02,05,07,41,995.19
2015,02,05,07,42,995.19
2015,02,05,07,43,995.19
2015,02,05,07,44,995.19
2015,02,05,07,45,995.23
2015,02,05,07,46,995.29
2015,02,05,07,47,995.29
2015,02,05,07,48,995.33
2015,02,05,07,49,995.23
2015,02,05,07,50,995.23
2015,02,05,07,51,995.29
2015,02,05,07,52,995.26
2015,02,05,07,53,995.26
2015,02,05,07,54,995.33
2015,02,05,07,55,995.33
2015,02,05,07,56,995.36
2015,02,05,07,57,995.36
2015,02,05,07,58,995.36
2015,02,05,07,59,995.43
2015,02,05,08,00,995.40
2015,02,05,08,01,995.40
2015,02,05,08,02,995.46
2015,02,05,08,03,995.46
2015,02,05,08,04,995.50
2015,02,05,08,05,995.33
2015,02,05,08,06,995.40
2015,02,05,08,07,995.40
2015,02,05,08,08,995.29
2015,02,05,08,09,995.29
2015,02,05,08,10,995.33
2015,02,05,08,11,995.26
2015,02,05,08,12,995.33
2015,02,05,08,13,995.33
2015,02,05,08,14,995.23
2015,02,05,08,15,995.29
2015,02,05,08,16,995.29
2015,02,05,08,17,995.26
2015,02,05,08,18,995.23
2015,02,05,08,19,995.16
2015,02,05,08,20,995.16
2015,02,05,08,21,995.16
2015,02,05,08,22,995.12
2015,02,05,08,23,995.16
2015,02,05,08,24,995.16
2015,02,05,08,25,995.16
2015,02,05,08,26,995.16
2015,02,05,08,27,995.12
2015,02,05,08,28,995.12
2015,02,05,08,29,995.23
2015,02,05,08,30,995.23
2015,02,05,08,31,995.19
2015,02,05,08,32,995.19
2015,02,05,08,33,995.16
2015,02,05,08,34,995.09
2015,02,05,08,35,995.09
2015,02,05,08,36,995.16
2015,02,05,08,37,995.09
2015,02,05,08,38,995.12
2015,02,05,08,39,995.19
2015,02,05,08,40,995.12
2015,02,05,08,41,995.16
2015,02,05,08,42,995.09
2015,02,05,08,43,995.06
2015,02,05,08,44,995.02
2015,02,05,08,45,994.96
2015,02,05,08,46,994.89
2015,02,05,08,47,994.79
2015,02,05,08,48,994.89
2015,02,05,08,49,994.92
2015,02,05,08,50,994.85
2015,02,05,08,51,994.92
2015,02,05,08,52,994.85
2015,02,05,08,53,994.85
2015,02,05,08,54,994.89
2015,02,05,08,55,994.85
2015,02,05,08,56,994.85
2015,02,05,08,57,994.92
2015,02,05,08,58,994.89
2015,02,05,08,59,994.92
2015,02,05,09,00,994.99
2015,02,05,09,01,995.06
2015,02,05,09,02,994.99
2015,02,05,09,03,995.02
2015,02,05,09,04,994.99
2015,02,05,09,05,995.06
2015,02,05,09,06,995.02
2015,02,05,09,07,994.99
2015,02,05,09,08,994.92
2015,02,05,09,09,994.92
2015,02,05,09,10,994.92
2015,02,05,09,11,994.85
2015,02,05,09,12,994.89
2015,02,05,09,13,994.85
2015,02,05,09,14,994.89
2015,02,05,09,15,994.89
2015,02,05,09,16,994.89
2015,02,05,09,17,994.82
2015,02,05,09,18,994.85
2015,02,05,09,19,994.89
2015,02,05,09,20,994.92
2015,02,05,09,21,994.96
2015,02,05,09,22,994.96
2015,02,05,09,23,994.92
2015,02,05,09,24,994.89
2015,02,05,09,25,994.96
2015,02,05,09,26,994.96
2015,02,05,09,27,994.92
2015,02,05,09,28,994.82
2015,02,05,09,29,994.85
2015,02,05,09,30,994.82
2015,02,05,09,31,994.82
2015,02,05,09,32,994.79
2015,02,05,09,33,994.75
2015,02,05,09,34,994.85
2015,02,05,09,35,994.82
2015,02,05,09,36,994.79
2015,02,05,09,37,994.82
2015,02,05,09,38,994.82
2015,02,05,09,39,994.79
2015,02,05,09,40,994.79
2015,02,05,09,41,994.72
2015,02,05,09,42,994.65
2015,02,05,09,43,994.68
2015,02,05,09,44,994.68
2015,02,05,09,45,994.65
2015,02,05,09,46,994.58
2015,02,05,09,47,994.62
2015,02,05,09,48,994.65
2015,02,05,09,49,994.72
2015,02,05,09,50,994.68
2015,02,05,09,51,994.72
2015,02,05,09,52,994.68
2015,02,05,09,53,994.72
2015,02,05,09,54,994.82
2015,02,05,09,55,994.75
2015,02,05,09,56,994.79
2015,02,05,09,57,994.68
2015,02,05,09,58,994.72
2015,02,05,09,59,994.68
2015,02,05,10,00,994.68
2015,02,05,10,01,994.65
2015,02,05,10,02,994.68
2015,02,05,10,03,994.75
2015,02,05,10,04,994.68
2015,02,05,10,05,994.68
2015,02,05,10,06,994.68
2015,02,05,10,07,994.72
2015,02,05,10,08,994.72
2015,02,05,10,09,994.72
2015,02,05,10,10,994.68
2015,02,05,10,11,994.65
2015,02,05,10,12,994.65
2015,02,05,10,13,994.65
2015,02,05,10,14,994.58
2015,02,05,10,15,994.75
2015,02,05,10,16,994.72
2015,02,05,10,17,994.75
2015,02,05,10,18,994.75
2015,02,05,10,19,994.79
2015,02,05,10,20,994.72
2015,02,05,10,21,994.68
2015,02,05,10,22,994.65
2015,02,05,10,23,994.65
2015,02,05,10,24,994.72
2015,02,05,10,25,994.72
2015,02,05,10,26,994.72
2015,02,05,10,27,994.79
2015,02,05,10,28,994.79
2015,02,05,10,29,994.75
2015,02,05,10,30,994.82
2015,02,05,10,31,994.96
2015,02,05,10,32,994.92
2015,02,05,10,33,994.96
2015,02,05,10,34,994.99
2015,02,05,10,35,994.99
2015,02,05,10,36,994.96
2015,02,05,10,37,994.96
2015,02,05,10,38,994.96
2015,02,05,10,39,994.89
2015,02,05,10,40,994.96
2015,02,05,10,41,994.99
2015,02,05,10,42,995.09
2015,02,05,10,43,995.02
2015,02,05,10,44,995.12
2015,02,05,10,45,995.02
2015,02,05,10,46,994.99
2015,02,05,10,47,994.92
2015,02,05,10,48,994.96
2015,02,05,10,49,994.99
2015,02,05,10,50,995.02
2015,02,05,10,51,995.02
2015,02,05,10,52,994.99
2015,02,05,10,53,994.96
2015,02,05,10,54,994.99
2015,02,05,10,55,994.96
2015,02,05,10,56,994.99
2015,02,05,10,57,995.02
2015,02,05,10,58,994.99
2015,02,05,10,59,994.96
2015,02,05,11,00,994.99
2015,02,05,11,01,994.99
2015,02,05,11,02,995.02
2015,02,05,11,03,995.02
2015,02,05,11,04,995.02
2015,02,05,11,05,994.99
2015,02,05,11,06,994.92
2015,02,05,11,07,994.89
2015,02,05,11,08,994.96
2015,02,05,11,09,994.99
2015,02,05,11,10,994.99
2015,02,05,11,11,995.02
2015,02,05,11,12,995.02
2015,02,05,11,13,995.02
2015,02,05,11,14,995.09
2015,02,05,11,15,995.09
2015,02,05,11,16,995.16
2015,02,05,11,17,995.19
2015,02,05,11,18,995.12
2015,02,05,11,19,995.12
2015,02,05,11,20,995.16
2015,02,05,11,21,995.19
2015,02,05,11,22,995.23
2015,02,05,11,23,995.26
2015,02,05,11,24,995.29
2015,02,05,11,25,995.29
2015,02,05,11,26,995.33
2015,02,05,11,27,995.36
2015,02,05,11,28,995.33
2015,02,05,11,29,995.40
2015,02,05,11,30,995.33
2015,02,05,11,31,995.33
2015,02,05,11,32,995.33
2015,02,05,11,33,995.23
2015,02,05,11,34,995.26
2015,02,05,11,35,995.26
2015,02,05,11,36,995.26
2015,02,05,11,37,995.29
2015,02,05,11,38,995.26
2015,02,05,11,39,995.19
2015,02,05,11,40,995.19
2015,02,05,11,41,995.12
2015,02,05,11,42,995.16
2015,02,05,11,43,995.16
2015,02,05,11,44,995.23
2015,02,05,11,45,995.23
2015,02,05,11,46,995.23
2015,02,05,11,47,995.12
2015,02,05,11,48,995.16
2015,02,05,11,49,995.19
2015,02,05,11,50,995.23
2015,02,05,11,51,995.26
2015,02,05,11,52,995.26
2015,02,05,11,53,995.16
2015,02,05,11,54,995.19
2015,02,05,11,55,995.16
2015,02,05,11,56,995.23
2015,02,05,11,57,995.19
2015,02,05,11,58,995.19
2015,02,05,11,59,995.12
2015,02,05,12,00,995.12
2015,02,05,12,01,995.09
2015,02,05,12,02,995.06
2015,02,05,12,03,994.96
2015,02,05,12,04,994.96
2015,02,05,12,05,994.99
2015,02,05,12,06,994.89
2015,02,05,12,07,994.89
2015,02,05,12,08,994.79
2015,02,05,12,09,994.82
2015,02,05,12,10,994.85
2015,02,05,12,11,994.85
2015,02,05,12,12,994.89
2015,02,05,12,13,994.82
2015,02,05,12,14,994.85
2015,02,05,12,15,994.85
2015,02,05,12,16,994.82
2015,02,05,12,17,994.85
2015,02,05,12,18,994.92
2015,02,05,12,19,994.99
2015,02,05,12,20,994.99
2015,02,05,12,21,994.92
2015,02,05,12,22,994.89
2015,02,05,12,23,994.85
2015,02,05,12,24,994.85
2015,02,05,12,25,994.92
2015,02,05,12,26,994.96
2015,02,05,12,27,994.96
2015,02,05,12,28,994.96
2015,02,05,12,29,994.92
2015,02,05,12,30,994.85
2015,02,05,12,31,994.85
2015,02,05,12,32,994.89
2015,02,05,12,33,994.89
2015,02,05,12,34,994.85
2015,02,05,12,35,994.72
2015,02,05,12,36,994.65
2015,02,05,12,37,994.68
2015,02,05,12,38,994.82
2015,02,05,12,39,994.89
2015,02,05,12,40,994.82
2015,02,05,12,41,994.82
2015,02,05,12,42,994.79
2015,02,05,12,43,994.85
2015,02,05,12,44,994.82
2015,02,05,12,45,994.79
2015,02,05,12,46,994.79
2015,02,05,12,47,994.82
2015,02,05,12,48,994.79
2015,02,05,12,49,994.79
2015,02,05,12,50,994.79
2015,02,05,12,51,994.75
2015,02,05,12,52,994.72
2015,02,05,12,53,994.65
2015,02,05,12,54,994.72
2015,02,05,12,55,994.79
2015,02,05,12,56,994.85
2015,02,05,12,57,994.85
2015,02,05,12,58,994.89
2015,02,05,12,59,994.99
2015,02,05,13,00,995.02
2015,02,05,13,01,995.02
2015,02,05,13,02,994.96
2015,02,05,13,03,995.06
2015,02,05,13,04,995.16
2015,02,05,13,05,995.23
2015,02,05,13,06,995.19
2015,02,05,13,07,995.16
2015,02,05,13,08,995.19
2015,02,05,13,09,995.19
2015,02,05,13,10,995.23
2015,02,05,13,11,995.16
2015,02,05,13,12,995.09
2015,02,05,13,13,995.09
2015,02,05,13,14,994.99
2015,02,05,13,15,995.06
2015,02,05,13,16,994.92
2015,02,05,13,17,994.75
2015,02,05,13,18,994.75
2015,02,05,13,19,994.79
2015,02,05,13,20,994.82
2015,02,05,13,21,994.79
2015,02,05,13,22,994.75
2015,02,05,13,23,994.72
2015,02,05,13,24,994.75
2015,02,05,13,25,994.79
2015,02,05,13,26,994.75
2015,02,05,13,27,994.68
2015,02,05,13,28,994.65
2015,02,05,13,29,994.68
2015,02,05,13,30,994.79
2015,02,05,13,31,994.72
2015,02,05,13,32,994.65
2015,02,05,13,33,994.65
2015,02,05,13,34,994.58
2015,02,05,13,35,994.52
2015,02,05,13,36,994.48
2015,02,05,13,37,994.45
2015,02,05,13,38,994.58
2015,02,05,13,39,994.52
2015,02,05,13,40,994.31
2015,02,05,13,41,994.38
2015,02,05,13,42,994.41
2015,02,05,13,43,994.45
2015,02,05,13,44,994.52
2015,02,05,13,45,994.55
2015,02,05,13,46,994.55
2015,02,05,13,47,994.45
2015,02,05,13,48,994.45
2015,02,05,13,49,994.58
2015,02,05,13,50,994.55
2015,02,05,13,51,994.62
2015,02,05,13,52,994.58
2015,02,05,13,53,994.62
2015,02,05,13,54,994.62
2015,02,05,13,55,994.68
2015,02,05,13,56,994.68
2015,02,05,13,57,994.65
2015,02,05,13,58,994.68
2015,02,05,13,59,994.68
2015,02,05,14,00,994.65
2015,02,05,14,01,994.72
2015,02,05,14,02,994.75
2015,02,05,14,03,994.75
2015,02,05,14,04,994.75
2015,02,05,14,05,994.79
2015,02,05,14,06,994.79
2015,02,05,14,07,994.79
2015,02,05,14,08,994.68
2015,02,05,14,09,994.68
2015,02,05,14,10,994.65
2015,02,05,14,11,994.75
2015,02,05,14,12,994.82
2015,02,05,14,13,994.79
2015,02,05,14,14,994.68
2015,02,05,14,15,994.72
2015,02,05,14,16,994.72
2015,02,05,14,17,994.72
2015,02,05,14,18,994.75
2015,02,05,14,19,994.75
2015,02,05,14,20,994.75
2015,02,05,14,21,994.72
2015,02,05,14,22,994.68
2015,02,05,14,23,994.62
2015,02,05,14,24,994.58
2015,02,05,14,25,994.62
2015,02,05,14,26,994.58
2015,02,05,14,27,994.62
2015,02,05,14,28,994.65
2015,02,05,14,29,994.65
2015,02,05,14,30,994.68
2015,02,05,14,31,994.65
2015,02,05,14,32,994.58
2015,02,05,14,33,994.62
2015,02,05,14,34,994.58
2015,02,05,14,35,994.58
2015,02,05,14,36,994.65
2015,02,05,14,37,994.65
2015,02,05,14,38,994.68
2015,02,05,14,39,994.65
2015,02,05,14,40,994.62
2015,02,05,14,41,994.55
2015,02,05,14,42,994.52
2015,02,05,14,43,994.58
2015,02,05,14,44,994.52
2015,02,05,14,45,994.45
2015,02,05,14,46,994.45
2015,02,05,14,47,994.48
2015,02,05,14,48,994.48
2015,02,05,14,49,994.45
2015,02,05,14,50,994.48
2015,02,05,14,51,994.55
2015,02,05,14,52,994.55
2015,02,05,14,53,994.62
2015,02,05,14,54,994.58
2015,02,05,14,55,994.58
2015,02,05,14,56,994.72
2015,02,05,14,57,994.72
2015,02,05,14,58,994.72
2015,02,05,14,59,994.72
2015,02,05,15,00,994.68
2015,02,05,15,01,994.72
2015,02,05,15,02,994.65
2015,02,05,15,03,994.65
2015,02,05,15,04,994.55
2015,02,05,15,05,994.52
2015,02,05,15,06,994.58
2015,02,05,15,07,994.55
2015,02,05,15,08,994.62
2015,02,05,15,09,994.65
2015,02,05,15,10,994.65
2015,02,05,15,11,994.65
2015,02,05,15,12,994.62
2015,02,05,15,13,994.55
2015,02,05,15,14,994.48
2015,02,05,15,15,994.45
2015,02,05,15,16,994.41
2015,02,05,15,17,994.38
2015,02,05,15,18,994.38
2015,02,05,15,19,994.38
2015,02,05,15,20,994.35
2015,02,05,15,21,994.35
2015,02,05,15,22,994.31
2015,02,05,15,23,994.41
2015,02,05,15,24,994.38
2015,02,05,15,25,994.45
2015,02,05,15,26,994.41
2015,02,05,15,27,994.52
2015,02,05,15,28,994.48
2015,02,05,15,29,994.52
2015,02,05,15,30,994.52
2015,02,05,15,31,994.55
2015,02,05,15,32,994.65
2015,02,05,15,33,994.62
2015,02,05,15,34,994.58
2015,02,05,15,35,994.65
2015,02,05,15,36,994.58
2015,02,05,15,37,994.52
2015,02,05,15,38,994.45
2015,02,05,15,39,994.29
2015,02,05,15,40,994.24
2015,02,05,15,41,994.24
2015,02,05,15,42,994.18
2015,02,05,15,43,994.11
2015,02,05,15,44,994.11
2015,02,05,15,45,994.14
2015,02,05,15,46,994.07
2015,02,05,15,47,994.04
2015,02,05,15,48,993.97
2015,02,05,15,49,993.94
2015,02,05,15,50,993.84
2015,02,05,15,51,993.74
2015,02,05,15,52,993.77
2015,02,05,15,53,993.84
2015,02,05,15,54,993.87
2015,02,05,15,55,993.84
2015,02,05,15,56,993.84
2015,02,05,15,57,993.77
2015,02,05,15,58,993.74
2015,02,05,15,59,993.70
2015,02,05,16,00,993.60
2015,02,05,16,01,993.63
2015,02,05,16,02,993.57
2015,02,05,16,03,993.57
2015,02,05,16,04,993.63
2015,02,05,16,05,993.60
2015,02,05,16,06,993.53
2015,02,05,16,07,993.50
2015,02,05,16,08,993.57
2015,02,05,16,09,993.60
2015,02,05,16,10,993.60
2015,02,05,16,11,993.57
2015,02,05,16,12,993.47
2015,02,05,16,13,993.43
2015,02,05,16,14,993.33
2015,02,05,16,15,993.30
2015,02,05,16,16,993.26
2015,02,05,16,17,993.26
2015,02,05,16,18,993.23
2015,02,05,16,19,993.16
2015,02,05,16,20,993.13
2015,02,05,16,21,993.13
2015,02,05,16,22,993.06
2015,02,05,16,23,993.06
2015,02,05,16,24,993.16
2015,02,05,16,25,993.32
2015,02,05,16,26,993.36
2015,02,05,16,27,993.47